Location: Bern�tre
(50.1974°N, 2.0915°E)
Time: 22:51:31
(UTC+00:00)

Cosmos 1428 Rocket - Pass Details

Date: 18 September 2020
Orbit: 947 x 989 km, 82.9° (Epoch: 30 October)

Event Time Altitude Azimuth Distance (km) Brightness Sun altitude
Rises 20:07:39 0° 351° (N) 3,707 8.1 -20.6°
Reaches altitude 10° 20:10:13 10° 354° (N) 2,751 7.3 -21.0°
Maximum altitude 20:16:30 70° 78° (ENE) 1,039 4.4 -21.9°
Enters shadow 20:18:53 39° 150° (SSE) 1,414 4.9 -22.2°
